sat.trackr.live / text

‹ back to catalog

ICEYE-X81

NORAD 69889 · 2026-156W

PAYLOAD ACTIVE UNKNOWN

§ Identity

Operator
Country
US
Launch date
2026-07-07
Launch site
AFWTR
Launch vehicle
Mass (kg)
RCS (m²)

External: N2YO · Heavens-Above · Gunter

§ Orbital elements

Epoch: 2026-09-20T03:28:27.233760Z

Period
96.54 min
Inclination
97.7465°
Eccentricity
0.0003868
Mean motion
14.91628380 rev/d
Perigee alt
590.2 km
Apogee alt
595.6 km
Semi-major
6,971.0 km
B*
1.8334e-4
RAAN
162.3264°
Arg perigee
254.4421°
Mean anomaly
105.6371°
Rev number
1,115

§ Raw data

ICEYE-X811 69889U 26156W   26263.14475965  .00001786  00000+0  18334-3 0  99932 69889  97.7465 162.3264 0003868 254.4421 105.6371 14.91628380 11154

JSON: /api/v1/satellites/69889 · /tle

For live sub-satellite position, see the globe view (requires WebGL).

§ Visibility from observer

Set your observer location to see the next 7 days of passes ≥ 10°. The values pass through the URL so the page stays shareable.

No JS? Fill the form by hand. The geolocation button needs JavaScript.